Capitol Logistics 330


CYYZ
Lester B. Pearson International Airport
Toronto, CA
KIAD
Washington Dulles International Airport
Dulles, US

Activity Log

Date Flight Route Aircraft Duration
09/23/2020 CPX330 RIGUS2 PSB MAPEL2 B763 1h 06m
03/26/2020 CPX330 DUSOM2 PSB MAPEL2 B763 1h 03m
03/01/2020 CPX330 CYYZ/33R DUSOM2 PSB MAPEL2 KIAD/I01C B763 1h 14m
11/05/2019 CPX330 RIGUS2 PSB MAPEL2 B763 1h 08m
06/26/2019 CPX330 RIGUS2 PSB MAPEL2 B763 0h 04m

Route Details

Aircraft Information
Primary: Boeing 767-300BDSF
Backup: Not Available
Route Data
Distance: 301nm
Sched. Duration: 1h 24m
Avg. Duration: 0h 87m (-37m)
Times Flown: 5
Recm'd Route: RIGUS2 PSB MAPEL2
Planned Altitude: 35,000ft
Origin Wx: CYYZ 190249Z VRB02KT 15SM -SN OVC040 M02/M03 A2990 RMK SC8 SLP135
Dest. Wx: KIAD 190152Z 27005KT 10SM FEW060 FEW250 02/M07 A3005 RMK AO2 SLP178 T00171067
Notes:

Financial History
Total Freight: 356,388lbs
Average Load: 71,278lbs/flt
Fuel Used: 112,497lbs
Avg. Fuel Used: 22,499lbs/flt
Fuel Expense: $69,748
Avg. Fuel Expense: $13,950
Avg. Fuel Cost: $0.62/lbs
Total Gross Income: $486,405
Pilot Pay: $995
Total Expenses: $52,792
Total Revenue: $362,623
Average Revenue: $97,281.02